Location: Ellerstadt
(49.4644°N, 8.2615°E)
Time: 12:34:57
(UTC+00:00)

COSMOS 1818 DEB - Visible Passes

Search period start: 20 September 2021 00:00
Search period end: 30 September 2021 00:00
Orbit: 762 x 792 km, 65.0° (Epoch: 08 September)

Date Brightness Start Highest point End Pass type
(mag) Time Alt. Az. Time Alt. Az. Time Alt. Az.
20 Sep ? 01:10:24 13° ESE 01:10:24 13° ESE 01:12:37 10° E visible
20 Sep ? 02:50:52 43° SSW 02:52:37 72° SE 02:58:03 10° NE visible
20 Sep ? 04:31:40 10° W 04:36:28 31° NNW 04:41:18 10° NNE visible
21 Sep ? 02:17:21 51° SE 02:17:51 53° ESE 02:23:08 10° NE visible
21 Sep ? 03:57:49 18° W 04:01:25 38° NW 04:06:30 10° NNE visible
22 Sep ? 01:43:47 37° E 01:43:47 37° E 01:48:08 10° NE visible
22 Sep ? 03:24:15 31° W 03:26:26 48° NW 03:31:43 10° NNE visible
23 Sep ? 01:10:10 23° E 01:10:10 23° E 01:13:01 10° ENE visible
23 Sep ? 02:50:37 54° W 02:51:29 62° NW 02:56:54 10° NE visible
23 Sep ? 04:31:45 10° WNW 04:35:54 22° NNW 04:40:04 10° NNE visible
24 Sep ? 00:36:31 14° ENE 00:36:31 14° ENE 00:37:43 10° ENE visible
24 Sep ? 02:16:58 76° N 02:16:58 76° N 02:22:04 10° NE visible
24 Sep ? 03:57:25 15° WNW 04:00:46 25° NNW 04:05:14 10° NNE visible
25 Sep ? 01:43:17 48° NE 01:43:17 48° NE 01:47:12 10° NE visible
25 Sep ? 03:23:43 24° WNW 03:25:39 30° NNW 03:30:26 10° NNE visible
26 Sep ? 01:09:33 29° ENE 01:09:33 29° ENE 01:12:17 10° NE visible
26 Sep ? 02:50:00 35° NW 02:50:36 36° NW 02:55:38 10° NNE visible
26 Sep ? 04:32:00 10° NW 04:35:32 17° NNW 04:39:02 10° NNE visible
27 Sep ? 00:35:48 18° ENE 00:35:48 18° ENE 00:37:18 10° NE visible
27 Sep ? 02:16:15 43° NNW 02:16:15 43° NNW 02:20:50 10° NNE visible
27 Sep ? 03:56:42 11° WNW 04:00:18 19° NNW 04:04:05 10° NNE visible
28 Sep ? 00:02:02 11° ENE 00:02:02 11° ENE 00:02:13 10° NE visible
28 Sep ? 01:42:29 38° NNE 01:42:29 38° NNE 01:46:02 10° NE visible
28 Sep ? 03:22:55 17° NW 03:25:06 21° NNW 03:29:12 10° NNE visible
29 Sep ? 01:08:41 28° NNE 01:08:41 28° NNE 01:11:12 10° NE visible
29 Sep ? 02:49:08 23° NW 02:49:57 24° NNW 02:54:22 10° NNE visible
29 Sep ? 04:32:03 10° NW 04:35:15 15° N 04:38:26 10° NE visible
